| time (UTC) | temp F | wind direction | speed MPH | gust MPH | rain 1hr in | rain 24hr in | rain mn in | humidity % | barometer mb |
| 20260503013015 | 48 | 210 | 0.0 | 1.0 | 0.00 | 0.09 | 0.09 | 90 | 1009.4 |
| 20260503011514 | 47 | 210 | 0.0 | 0.0 | 0.00 | 0.09 | 0.09 | 90 | 1009.1 |
| 20260503010013 | 47 | 210 | 0.0 | 0.0 | 0.00 | 0.09 | 0.09 | 89 | 1008.9 |
| 20260503004512 | 47 | 210 | 0.0 | 0.0 | 0.00 | 0.09 | 0.09 | 88 | 1008.8 |
| 20260503003026 | 47 | 210 | 0.0 | 0.0 | 0.00 | 0.09 | 0.09 | 87 | 1008.8 |
| 20260503001512 | 48 | 210 | 0.0 | 0.0 | 0.00 | 0.09 | 0.09 | 87 | 1008.8 |
| 20260503000016 | 48 | 210 | 0.0 | 0.0 | 0.00 | 0.09 | 0.09 | 86 | 1008.6 |
| 20260502234510 | 49 | 210 | 0.0 | 0.0 | 0.00 | 0.09 | 0.09 | 85 | 1008.6 |
| 20260502233009 | 49 | 210 | 0.0 | 1.0 | 0.00 | 0.09 | 0.09 | 85 | 1008.5 |
| 20260502231508 | 50 | 210 | 0.0 | 0.0 | 0.00 | 0.09 | 0.09 | 85 | 1008.6 |
| 20260502230008 | 50 | 210 | 0.0 | 1.0 | 0.00 | 0.09 | 0.09 | 84 | 1008.5 |
| 20260502224506 | 50 | 210 | 0.0 | 1.0 | 0.00 | 0.09 | 0.09 | 84 | 1008.4 |
| 20260502223012 | 50 | 214 | 0.0 | 0.0 | 0.00 | 0.09 | 0.09 | 83 | 1008.4 |
| 20260502221505 | 50 | 214 | 0.0 | 0.0 | 0.00 | 0.09 | 0.09 | 81 | 1008.6 |
| 20260502220006 | 51 | 214 | 0.0 | 1.0 | 0.00 | 0.09 | 0.09 | 81 | 1008.6 |
| 20260502214504 | 51 | 214 | 0.0 | 2.0 | 0.00 | 0.09 | 0.09 | 78 | 1008.7 |
| 20260502213003 | 52 | 212 | 0.0 | 4.0 | 0.00 | 0.09 | 0.09 | 74 | 1008.7 |
| 20260502211503 | 54 | 172 | 1.0 | 4.0 | 0.00 | 0.09 | 0.09 | 69 | 1008.6 |
| 20260502210002 | 56 | 219 | 0.0 | 3.0 | 0.00 | 0.09 | 0.09 | 65 | 1008.2 |
| 20260502204502 | 57 | 184 | 1.0 | 4.0 | 0.00 | 0.09 | 0.09 | 61 | 1008.2 |
| 20260502203117 | 59 | 206 | 2.0 | 5.0 | 0.00 | 0.09 | 0.09 | 59 | 1008.1 |
| 20260502201558 | 58 | 200 | 1.0 | 6.0 | 0.00 | 0.09 | 0.09 | 61 | 1008.4 |
| 20260502200100 | 58 | 206 | 1.0 | 5.0 | 0.00 | 0.09 | 0.09 | 58 | 1008.4 |
| 20260502194554 | 58 | 202 | 4.0 | 7.0 | 0.00 | 0.09 | 0.09 | 57 | 1008.6 |
| 20260502193051 | 58 | 221 | 3.0 | 6.0 | 0.00 | 0.09 | 0.09 | 55 | 1008.8 |
| 20260502191549 | 57 | 229 | 1.0 | 5.0 | 0.00 | 0.09 | 0.09 | 66 | 1009.0 |
| 20260502190045 | 57 | 213 | 1.0 | 7.0 | 0.00 | 0.09 | 0.09 | 67 | 1009.1 |
| 20260502184542 | 55 | 200 | 2.0 | 9.0 | 0.00 | 0.09 | 0.09 | 70 | 1009.1 |
| 20260502183043 | 55 | 181 | 2.0 | 6.0 | 0.00 | 0.09 | 0.09 | 69 | 1009.2 |
| 20260502181544 | 55 | 269 | 1.0 | 10.0 | 0.00 | 0.09 | 0.09 | 69 | 1009.1 |
| 20260502163039 | 55 | 286 | 1.0 | 3.0 | 0.00 | 0.09 | 0.09 | 70 | 1009.7 |
| 20260502161536 | 54 | 200 | 0.0 | 2.0 | 0.00 | 0.09 | 0.09 | 73 | 1009.6 |
| 20260502151524 | 54 | 194 | 0.0 | 5.0 | 0.00 | 0.09 | 0.09 | 79 | 1010.6 |
| 20260502123004 | 49 | 200 | 0.0 | 3.0 | 0.01 | 0.01 | 0.01 | 84 | 1011.4 |
| 20260502121607 | 49 | 224 | 0.0 | 1.0 | 0.01 | 0.01 | 0.01 | 84 | 1010.8 |
| 20260502120120 | 48 | 218 | 0.0 | 1.0 | 0.00 | 0.00 | 0.00 | 85 | 1010.6 |
| 20260502114605 | 48 | 236 | 0.0 | 2.0 | 0.00 | 0.00 | 0.00 | 85 | 1010.4 |
| 20260502113127 | 47 | 214 | 0.0 | 1.0 | 0.00 | 0.00 | 0.00 | 86 | 1010.5 |
| 20260502111557 | 47 | 207 | 0.0 | 1.0 | 0.00 | 0.00 | 0.00 | 85 | 1010.3 |
| 20260502110056 | 47 | 207 | 0.0 | 1.0 | 0.00 | 0.00 | 0.00 | 84 | 1010.5 |
| 20260502104554 | 47 | 203 | 0.0 | 1.0 | 0.00 | 0.00 | 0.00 | 82 | 1010.3 |
| 20260502103054 | 47 | 192 | 0.0 | 1.0 | 0.00 | 0.00 | 0.00 | 82 | 1010.1 |
| 20260502101556 | 47 | 200 | 0.0 | 2.0 | 0.00 | 0.00 | 0.00 | 82 | 1010.0 |
| 20260502070057 | 48 | 50 | 0.0 | 2.0 | 0.00 | 0.00 | 0.00 | 73 | 1009.7 |
| 20260502064548 | 48 | 220 | 0.0 | 1.0 | 0.00 | 0.03 | 0.00 | 70 | 1010.4 |
| 20260502063038 | 48 | 205 | 0.0 | 2.0 | 0.00 | 0.03 | 0.00 | 70 | 1009.9 |
| 20260502061536 | 47 | 199 | 0.0 | 1.0 | 0.00 | 0.03 | 0.00 | 69 | 1009.8 |
| 20260502060034 | 47 | 210 | 0.0 | 2.0 | 0.00 | 0.03 | 0.00 | 69 | 1009.9 |
| 20260502054535 | 47 | 199 | 0.0 | 1.0 | 0.00 | 0.03 | 0.00 | 68 | 1009.9 |
| 20260502053032 | 46 | 199 | 0.0 | 0.0 | 0.00 | 0.03 | 0.00 | 68 | 1009.9 |
| 20260502051536 | 46 | 199 | 0.0 | 0.0 | 0.00 | 0.03 | 0.00 | 68 | 1010.0 |
| 20260502050034 | 46 | 199 | 0.0 | 0.0 | 0.00 | 0.03 | 0.00 | 68 | 1010.0 |
| 20260502044527 | 46 | 198 | 0.0 | 0.0 | 0.00 | 0.03 | 0.00 | 67 | 1009.9 |
| 20260502043030 | 45 | 199 | 0.0 | 0.0 | 0.00 | 0.03 | 0.00 | 67 | 1010.2 |
| 20260502041524 | 45 | 198 | 0.0 | 0.0 | 0.00 | 0.03 | 0.00 | 66 | 1010.1 |
| 20260502040021 | 46 | 199 | 0.0 | 0.0 | 0.00 | 0.03 | 0.00 | 64 | 1010.1 |
| 20260502034520 | 46 | 199 | 0.0 | 0.0 | 0.00 | 0.03 | 0.03 | 64 | 1010.2 |
| 20260502033022 | 47 | 198 | 0.0 | 1.0 | 0.00 | 0.03 | 0.03 | 63 | 1010.3 |
| 20260502031517 | 47 | 193 | 0.0 | 1.0 | 0.00 | 0.03 | 0.03 | 63 | 1010.0 |
| 20260502030016 | 48 | 233 | 0.0 | 0.0 | 0.00 | 0.03 | 0.03 | 64 | 1009.8 |
| 20260502024523 | 47 | 233 | 0.0 | 0.0 | 0.00 | 0.03 | 0.03 | 63 | 1009.7 |
| 20260502023017 | 47 | 233 | 0.0 | 0.0 | 0.00 | 0.03 | 0.03 | 62 | 1009.8 |
| 20260502021516 | 47 | 233 | 0.0 | 0.0 | 0.00 | 0.03 | 0.03 | 58 | 1009.8 |
| 20260502020014 | 48 | 233 | 0.0 | 0.0 | 0.00 | 0.03 | 0.03 | 54 | 1009.8 |
| 20260502014513 | 48 | 233 | 0.0 | 0.0 | 0.00 | 0.03 | 0.03 | 53 | 1009.8 |